Regional Weather Roundup
Issued by NWS

Home | Current Version | Previous Version | Graphics & Text | Print | Product List | Glossary On
Versions: 1 2 3 4 5 6 7 8 9 10 11 12 13 14 15 16 17 18 19 20 21 22 23 24 25 26 27 28 29 30 31 32 33 34 35 36 37 38 39 40 41 42 43 44 45 46 47 48 49 50
000
ASUS43 KDMX 220101
RWRIA

WEATHER ROUNDUP FOR IOWA
NATIONAL WEATHER SERVICE DES MOINES IA
700 PM CST TUE NOV 21 2017

NOTE: "FAIR" INDICATES FEW OR NO CLOUDS BELOW 12,000 FEET WITH NO
SIGNIFICANT WEATHER AND/OR OBSTRUCTIONS TO VISIBILITY.

* - THESE STATIONS ARE NOT NWS STATIONS...THUS NOT UNDER NWS
QUALITY CONTROL.  THEY ALSO DO NOT REPORT WEATHER SUCH
AS PRECIPITATION OR FOG.

IAZ001>003-012>014-020>022-031>034-043>046-220200-
   NORTHWEST IOWA

CITY           SKY/WX    TMP DP  RH WIND       PRES   REMARKS
CARROLL *      CLEAR     25  10  54 NW13      30.33R WCI  13
CHEROKEE *     CLEAR     24  10  56 NW3       30.35R
DENISON *      CLEAR     23  12  63 N6        30.36R WCI  16
LE MARS *      CLOUDY    23   9  54 NW9       30.37S WCI  13
ORANGE CITY *  CLOUDY    23  10  58 NW7       30.34S WCI  15
SHELDON *      CLOUDY    19   9  63 NW10      30.33R WCI   8
SIOUX CITY     CLOUDY    23  10  57 NW13      30.39R WCI  11
SPENCER        CLEAR     16   8  71 NW8       30.34R WCI   5
STORM LAKE *   CLEAR     21  10  63 NW12      30.33R WCI   9
$$

IAZ055>058-069>071-079>083-090>094-220200-
   SOUTHWEST IOWA

CITY           SKY/WX    TMP DP  RH WIND       PRES   REMARKS
ATLANTIC *     CLEAR     25  14  63 NW13      30.34S WCI  13
AUDUBON *      CLEAR     25  12  58 NW6       30.34R WCI  18
CLARINDA *       N/A     27  14  59 NW10      30.38R WCI  17
COUNCIL BLFS * CLEAR     27  12  54 NW12      30.36R WCI  16
CRESTON *      CLEAR     25  16  68 NW10      30.33R WCI  15
HARLAN  *      CLEAR     23  12  63 NW9       30.39R WCI  13
LAMONI         CLEAR     28  15  58 NW14      30.30R WCI  17
RED OAK *      CLEAR     27  14  59 MISG      30.36R
SHENANDOAH *   CLEAR     27  16  63 N9        30.37R WCI  17
$$

IAZ047>049-059>061-072>074-084-220200-
   CENTRAL IOWA

CITY           SKY/WX    TMP DP  RH WIND       PRES   REMARKS
AMES           CLEAR     27  12  53 N13G22    30.31R WCI  16
ANKENY *       CLEAR     27  12  54 NW9       30.33R WCI  17
BOONE *        CLEAR     25  12  58 NW12      30.29R WCI  14
CHARITON *     CLEAR     28  16  59 NW16      30.28R WCI  17
DES MOINES     CLEAR     29  11  47 N15       30.30R WCI  18
GRINNELL*      CLEAR     25  16  68 NW10      30.28R WCI  15
KNOXVILLE *    CLEAR     28  14  54 NW12G17   30.28R WCI  18
MARSHALLTOWN   CLEAR     23  14  68 NW10      30.28R WCI  12
NEWTON *       CLEAR     27  14  59 NW13      30.30R WCI  16
PELLA *        CLEAR     28  14  57 NW16      30.30R WCI  16
PERRY *          N/A     26  10  51 NW12      30.33R WCI  16
$$

IAZ004>006-015-016-023>025-035-036-220200-
   NORTH CENTRAL IOWA

CITY           SKY/WX    TMP DP  RH WIND       PRES   REMARKS
ALGONA *       CLEAR     23  12  63 NW12      30.30R WCI  12
CLARION *      CLEAR     23  12  63 NW10      30.30R WCI  12
ESTHERVILLE    CLEAR     20  10  65 NW12      30.31R WCI   8
FORT DODGE *   CLEAR     24  12  60 N8        30.32R WCI  15
MASON CITY     CLEAR     22  11  62 NW17      30.29R WCI   8
FOREST CITY *    N/A     23  12  63 NW12      30.27S WCI  12
WEBSTER CITY * CLEAR     23  12  63 NW13      30.29R WCI  11
IOWA FALLS *     N/A     25  14  64 NW14      30.29R WCI  13
$$

IAZ007>011-017>019-026>030-037>042-050>054-066-220200-
   NORTHEAST IOWA

CITY           SKY/WX    TMP DP  RH WIND       PRES   REMARKS
CEDAR RAPIDS   CLEAR     26  16  65 NW16      30.23R WCI  14
CHARLES CITY * CLEAR     23  12  63 NW10      30.26R WCI  12
CLINTON *      CLEAR     25  18  74 NW9       30.21R WCI  15
DECORAH *      CLEAR     25  14  63 NW9       30.20R WCI  15
DUBUQUE        CLEAR     26  15  63 NW13      30.18R WCI  15
MONTICELLO *   CLEAR     28  16  59 NW14      30.21R WCI  17
OELWEIN *      CLEAR     25  16  68 NW16G22   30.23R WCI  12
WATERLOO       CLEAR     24  13  62 NW16      30.25R WCI  11
$$

IAZ064-065-067-068-078-220200-
   EAST CENTRAL IOWA

CITY           SKY/WX    TMP DP  RH WIND       PRES   REMARKS
DAVENPORT      CLEAR     27  18  69 W10       30.23R WCI  17
IOWA CITY      CLEAR     29  18  63 NW8       30.26R WCI  21
MT. PLEASANT * CLEAR     29  18  63 NW6       30.26R WCI  22
MUSCATINE *    CLEAR     28  18  64 NW7       30.26R WCI  21
QUAD CITIES    CLEAR     30  17  58 NW14      30.21R WCI  19
$$

IAZ062-063-075>077-085>089-095>099-220200-
   SOUTHEAST IOWA

CITY           SKY/WX    TMP DP  RH WIND       PRES   REMARKS
BURLINGTON     CLEAR     30  19  63 NW10      30.24R WCI  21
FAIRFIELD *    CLEAR     28  18  64 NW13      30.26R WCI  18
FORT MADISON * CLEAR     28  19  69 NW8       30.26R WCI  20
KEOKUK *       CLEAR     30  19  64 NW7       30.26R WCI  23
OSKALOOSA *      N/A     28  17  64 NW15      30.28R WCI  16
OTTUMWA        CLEAR     28  17  63 NW15      30.28R WCI  16
WASHINGTON *   CLEAR     28  19  69 NW13      30.27R WCI  18
$$

ABBREVIATIONS USED IN REMARKS
   TC - TEMPERATURES IN CELSIUS
  WCI - WIND CHILL INDEX
   HX - HEAT INDEX
  VSB - VISIBILITY
$$





USA.gov is the U.S. government's official web portal to all federal, state and local government web resources and services.